Regional Weather Roundup
Issued by NWS

Home | Current Version | Previous Version | Text Only | Print | Product List | Glossary On
Versions: 1 2 3 4 5 6 7 8 9 10 11 12 13 14 15 16 17 18 19 20 21 22 23 24 25 26 27 28 29 30 31 32 33 34 35 36 37 38 39 40 41 42 43 44 45 46 47 48 49 50
222
ASUS44 KLIX 300310
RWRLA
LOUISIANA WEATHER ROUNDUP
NATIONAL WEATHER SERVICE NEW ORLEANS LA
900 PM CST THU JAN 29 2015

NOTE: "FAIR" INDICATES FEW OR NO CLOUDS BELOW 12,000 FEET WITH NO
      SIGNIFICANT WEATHER AND/OR OBSTRUCTIONS TO VISIBILITY.
      SKY/WX - SKY CONDITION AND SIGNIFICANT WEATHER.
      TMP - AIR TEMPERATURE.    DP   - DEWPOINT TEMPERATURE.
      RH  - RELATIVE HUMIDITY.  PRES - PRESSURE.
      HX  - HEAT INDEX.         WCI  - WIND CHILL INDEX.

*  THESE STATIONS ARE NOT NWS OR FAA STATIONS AND ARE NOT UNDER
   NWS QUALITY CONTROL.

LAZ040-048-061>063-065-066-069-300400-
SOUTHEAST LOUISIANA

CITY           SKY/WX    TMP DP  RH WIND       PRES   REMARKS
N.O. AUDUBON     N/A     61  59  92 MISG        N/A
N.O. INTL ARPT PTCLDY    62  55  77 SW6       30.22S
N.O. LAKEFRONT PTCLDY    64  55  72 SW13      30.22R
N.O. DOWNTOWN* NOT AVBL
SLIDELL        PTCLDY    58  53  84 CALM      30.21R
BATON ROUGE    PTCLDY    62  51  67 W5        30.23R
BOOTHVILLE     CLEAR     62  60  93 SW5       30.24R
BELLE CHASSE   PTCLDY    64  56  75 SW8       30.22S
BOGALUSA*        N/A     55  51  85 CALM      30.23R
GALLIANO*      CLEAR     60  58  94 SW3       30.25S
NEW ROADS*     MOCLDY    58  53  82 W3        30.23S
GONZALES*      FAIR      63  59  86 W3        30.23R
HAMMOND*       PTCLDY    63  52  67 CALM      30.24R
HOUMA*         CLEAR     59  58  96 SW5       30.24F
PORT FOURCHON* CLEAR     64  61  88 W6        30.28R

$$

LAZ041-044-053-054-300400-
SOUTHWEST LOUISIANA

CITY           SKY/WX    TMP DP  RH WIND       PRES   REMARKS
LAKE CHARLES   PTCLDY    61  58  90 W3        30.25R
LAFAYETTE      CLEAR     63  57  81 W7        30.25R
PATTERSON      CLEAR     55  54  94 SW3       30.26S
SALT POINT       N/A     55  54  96 SW3       30.24S
NEW IBERIA     PTCLDY    62  57  83 W5        30.25R
CHENAULT AIRPK PTCLDY    64  59  86 W6        30.25S

$$

LAZ027-028-300400-
CENTRAL LOUISIANA

CITY           SKY/WX    TMP DP  RH WIND       PRES   REMARKS
FORT POLK      CLEAR     60  52  75 N9        30.26R
ALEXANDRIA INT PTCLDY    64  46  52 N10       30.24R
ALEXANDRIA     PTCLDY    64  48  56 NW7       30.26R

$$

LAZ001-002-300400-
NORTHWEST LOUISIANA

CITY           SKY/WX    TMP DP  RH WIND       PRES   REMARKS
SHREVEPORT     CLOUDY    56  39  53 N20G25    30.35R
BARKSDALE AFB  CLOUDY    55  38  51 N13       30.35R
DTN SHREVEPORT CLOUDY    55  36  48 N12G22    30.36R

$$

LAZ014-016-300400-
NORTHEAST LOUISIANA

CITY           SKY/WX    TMP DP  RH WIND       PRES   REMARKS
MONROE         PTCLDY    59  41  51 N18G25    30.32R
TALLULAH       PTCLDY    55  41  59 N25G35    30.31R

$$




USA.gov is the U.S. government's official web portal to all federal, state and local government web resources and services.